Weather History for PASO - October, 2013

Change the Weather History Date:

Thursday, October 3, 2013

  Actual Average (PAHO) Record (PAHO)
Temperature  
Mean Temperature 44 °F -  
Max Temperature 51 °F 48 °F 59 °F (1954)
Min Temperature 39 °F 34 °F 25 °F (1953)
Degree Days  
Heating Degree Days 20    
Moisture  
Dew Point 38 °F    
Average Humidity 74    
Maximum Humidity 89    
Minimum Humidity 66    
Precipitation  
Precipitation 0.04 in - - ()
Sea Level Pressure  
Sea Level Pressure 29.45 in    
Wind  
Wind Speed 4 mph (NNE)    
Max Wind Speed 10 mph    
Max Gust Speed 20 mph    
Visibility 10 miles    
Events Rain    
Averages and records for this station are not official NWS values.
T = Trace of Precipitation, MM = Missing Value Source: NWS Daily Summary

Daily Weather History Graph

Daily Weather History Graph

Search for Another Location

Airport or City:

Trip Planner

Search our weather history database for the weather conditions in past years. The results will help you decide how hot, cold, wet, or windy it might be!

Date:

Astronomy

Oct. 03, 2013 Rise Set
Actual Time 8:17 AM AKDT 7:32 PM AKDT
Civil Twilight 7:36 AM AKDT 8:13 PM AKDT
Nautical Twilight 6:49 AM AKDT 9:00 PM AKDT
Astronomical Twilight 5:59 AM AKDT 9:49 PM AKDT
Moon 6:52 AM AKDT (10/3) 6:49 PM AKDT (10/3)
Length of Visible Light 12h 36m
Length of Day
11h 14m
Waning Crescent, 2% of the Moon is Illuminated
Oct 3
Waning Crescent
Oct 4
New
Oct 11
First Quarter
Oct 18
Full
Oct 26
Last Quarter

Hourly Weather History & Observations

Time (AKDT) Temp. Windchill Dew Point Humidity Pressure Visibility Wind Dir Wind Speed Gust Speed Precip Events Conditions
12:53 AM 39.9 °F - 35.1 °F 83% 29.71 in 10.0 mi Calm Calm - N/A   Mostly Cloudy
1:53 AM 41.0 °F - 36.0 °F 82% 29.68 in 10.0 mi Calm Calm - 0.00 in Rain Light Rain
2:53 AM 44.1 °F 40.1 °F 35.1 °F 71% 29.65 in 10.0 mi North 6.9 mph - 0.00 in Rain Light Rain
3:53 AM 46.0 °F 43.9 °F 36.0 °F 68% 29.61 in 10.0 mi Variable 4.6 mph - 0.00 in   Overcast
4:53 AM 45.0 °F - 37.9 °F 76% 29.58 in 10.0 mi Calm Calm - 0.00 in Rain Light Rain
5:53 AM 43.0 °F - 39.9 °F 89% 29.54 in 10.0 mi Calm Calm - 0.01 in Rain Light Rain
6:53 AM 43.0 °F - 39.0 °F 86% 29.51 in 10.0 mi Calm Calm - 0.00 in   Overcast
7:53 AM 44.1 °F 41.5 °F 37.9 °F 79% 29.48 in 10.0 mi North 4.6 mph - 0.00 in   Overcast
8:53 AM 48.0 °F - 37.0 °F 66% 29.45 in 10.0 mi Variable 6.9 mph - N/A   Overcast
9:53 AM 48.0 °F - 37.0 °F 66% 29.43 in 10.0 mi North 9.2 mph - N/A   Overcast
10:53 AM 48.0 °F - 37.9 °F 68% 29.40 in 10.0 mi NNE 8.1 mph 17.3 mph N/A   Overcast
11:53 AM 48.0 °F - 37.9 °F 68% 29.37 in 10.0 mi NNE 10.4 mph 16.1 mph N/A   Overcast
12:53 PM 48.0 °F - 39.0 °F 71% 29.35 in 10.0 mi Variable 4.6 mph - N/A   Overcast
1:53 PM 48.9 °F - 39.0 °F 69% 29.32 in 10.0 mi North 6.9 mph - 0.00 in Rain Light Rain
2:53 PM 48.9 °F - 39.9 °F 71% 29.31 in 10.0 mi Variable 6.9 mph - 0.00 in Rain Light Rain
3:53 PM 48.9 °F - 39.9 °F 71% 29.31 in 10.0 mi Variable 5.8 mph - 0.01 in Rain Light Rain
4:53 PM 48.9 °F - 39.9 °F 71% 29.31 in 10.0 mi Variable 5.8 mph - 0.01 in Rain Light Rain
5:53 PM 50.0 °F - 39.9 °F 68% 29.32 in 10.0 mi Variable 6.9 mph - 0.00 in Rain Light Rain
6:53 PM 50.0 °F - 39.9 °F 68% 29.34 in 10.0 mi NNE 10.4 mph 19.6 mph 0.01 in Rain Light Rain
8:53 PM 50.0 °F - 39.0 °F 66% 29.38 in 10.0 mi Variable 4.6 mph - 0.00 in Rain Light Rain
9:53 PM 50.0 °F - 39.0 °F 66% 29.40 in 10.0 mi NE 6.9 mph - 0.00 in   Overcast
10:53 PM 46.0 °F 44.8 °F 42.1 °F 86% 29.42 in 10.0 mi SSW 3.5 mph - N/A   Overcast
11:53 PM 44.1 °F - 41.0 °F 89% 29.44 in 10.0 mi Calm Calm - N/A   Partly Cloudy